TimeEST,TemperatureF,Dew PointF,Humidity,Sea Level PressureIn,VisibilityMPH,Wind Direction,Wind SpeedMPH,Gust SpeedMPH,PrecipitationIn,Events,Conditions,WindDirDegrees,DateUTC
12:53 AM,41.0,39.9,96,30.17,10.0,Calm,Calm,-,N/A,,Clear,0,2014-02-09 05:53:00
1:53 AM,41.0,39.0,93,30.16,10.0,Calm,Calm,-,N/A,,Clear,0,2014-02-09 06:53:00
2:53 AM,39.0,37.9,96,30.14,6.0,Calm,Calm,-,N/A,,Clear,0,2014-02-09 07:53:00
3:53 AM,39.0,37.0,93,30.14,8.0,Calm,Calm,-,N/A,,Clear,0,2014-02-09 08:53:00
4:53 AM,37.9,37.0,97,30.14,9.0,Calm,Calm,-,N/A,,Clear,0,2014-02-09 09:53:00
5:53 AM,37.9,37.0,97,30.16,7.0,Calm,Calm,-,N/A,,Clear,0,2014-02-09 10:53:00
6:53 AM,39.0,36.0,89,30.17,9.0,Calm,Calm,-,N/A,,Mostly Cloudy,0,2014-02-09 11:53:00
7:53 AM,39.0,37.9,96,30.19,7.0,Calm,Calm,-,N/A,,Mostly Cloudy,0,2014-02-09 12:53:00
8:53 AM,46.0,44.1,93,30.20,7.0,Calm,Calm,-,N/A,,Clear,0,2014-02-09 13:53:00
9:53 AM,53.1,48.0,83,30.22,10.0,Calm,Calm,-,N/A,,Mostly Cloudy,0,2014-02-09 14:53:00
10:53 AM,57.0,48.0,72,30.22,10.0,SW,3.5,-,N/A,,Overcast,220,2014-02-09 15:53:00
11:53 AM,63.0,45.0,52,30.19,10.0,Variable,4.6,-,N/A,,Clear,0,2014-02-09 16:53:00
12:53 PM,64.9,44.1,47,30.16,10.0,Variable,4.6,-,N/A,,Clear,0,2014-02-09 17:53:00
1:53 PM,66.0,42.1,42,30.12,10.0,WSW,6.9,-,N/A,,Clear,240,2014-02-09 18:53:00
2:53 PM,66.0,43.0,43,30.09,10.0,SW,5.8,-,N/A,,Clear,220,2014-02-09 19:53:00
3:53 PM,68.0,43.0,40,30.08,10.0,WNW,5.8,-,N/A,,Clear,290,2014-02-09 20:53:00
4:53 PM,66.9,42.1,40,30.08,10.0,SW,5.8,-,N/A,,Clear,230,2014-02-09 21:53:00
5:53 PM,64.0,44.1,48,30.09,10.0,SW,6.9,-,N/A,,Clear,220,2014-02-09 22:53:00
6:53 PM,55.9,46.0,69,30.11,10.0,SW,3.5,-,N/A,,Clear,220,2014-02-09 23:53:00
7:53 PM,53.1,45.0,74,30.11,10.0,Calm,Calm,-,N/A,,Clear,0,2014-02-10 00:53:00
8:53 PM,48.9,45.0,86,30.13,10.0,Calm,Calm,-,N/A,,Clear,0,2014-02-10 01:53:00
9:53 PM,48.9,44.1,83,30.11,10.0,Calm,Calm,-,N/A,,Clear,0,2014-02-10 02:53:00
10:53 PM,45.0,43.0,93,30.12,10.0,Calm,Calm,-,N/A,,Clear,0,2014-02-10 03:53:00
11:53 PM,44.1,42.1,93,30.12,10.0,Calm,Calm,-,N/A,,Clear,0,2014-02-10 04:53:00